Tiempo cada hora Celakovice

Hoy, 19 Abril, Lunes

Tiempo Temperatura Precipitaciones Viento Presión Humedad
00:00 +6°C° 0 mm 1 mps 746 mmHg 89%
01:00 +6°C° 0 mm 1 mps 746 mmHg 90%
02:00 +6°C° 0 mm 1 mps 746 mmHg 90%
03:00 +6°C° 0 mm 1 mps 746 mmHg 90%
04:00 +6°C° 0 mm 1 mps 745 mmHg 90%
05:00 +7°C° 0 mm 1 mps 745 mmHg 89%
06:00 +7°C° 0 mm 1 mps 745 mmHg 88%
07:00 +7°C° 0 mm 1 mps 746 mmHg 86%
08:00 +9°C° 0 mm 1 mps 745 mmHg 80%
09:00 +10°C° 0 mm 1 mps 745 mmHg 74%
10:00 +10°C° 0 mm 2 mps 745 mmHg 67%
11:00 +12°C° 0.1 mm 2 mps 745 mmHg 65%
12:00 +12°C° 0.1 mm 2 mps 745 mmHg 62%
13:00 +12°C° 0 mm 3 mps 745 mmHg 59%
14:00 +11°C° 0.1 mm 3 mps 745 mmHg 67%
15:00 +10°C° 0.1 mm 3 mps 745 mmHg 74%
16:00 +9°C° 0.1 mm 3 mps 745 mmHg 81%
17:00 +9°C° 0 mm 2 mps 744 mmHg 83%
18:00 +8°C° 0 mm 2 mps 744 mmHg 84%
19:00 +9°C° 0 mm 1 mps 744 mmHg 86%
20:00 +8°C° 0 mm 1 mps 744 mmHg 87%
21:00 +8°C° 0 mm 1 mps 744 mmHg 89%
22:00 +7°C° 0 mm 1 mps 744 mmHg 91%
23:00 +7°C° 0 mm 1 mps 744 mmHg 91%

Mañana, 20 Abril, Martes

Tiempo Temperatura Precipitaciones Viento Presión Humedad
00:00 +7°C° 0 mm 1 mps 744 mmHg 92%
01:00 +6°C° 0 mm 1 mps 744 mmHg 92%
02:00 +6°C° 0 mm 1 mps 744 mmHg 93%
03:00 +6°C° 0 mm 1 mps 744 mmHg 93%
04:00 +5°C° 0 mm 1 mps 744 mmHg 93%
05:00 +6°C° 0 mm 1 mps 744 mmHg 91%
06:00 +7°C° 0 mm 1 mps 744 mmHg 88%
07:00 +8°C° 0 mm 1 mps 744 mmHg 86%
08:00 +10°C° 0.1 mm 1 mps 744 mmHg 82%
09:00 +11°C° 0.1 mm 1 mps 744 mmHg 77%
10:00 +12°C° 0.1 mm 1 mps 744 mmHg 73%
11:00 +13°C° 0.3 mm 1 mps 743 mmHg 67%
12:00 +14°C° 0.3 mm 1 mps 743 mmHg 61%
13:00 +15°C° 0.3 mm 1 mps 743 mmHg 56%
14:00 +15°C° 0.3 mm 1 mps 742 mmHg 56%
15:00 +15°C° 0.3 mm 1 mps 742 mmHg 56%
16:00 +15°C° 0.3 mm 1 mps 742 mmHg 57%
17:00 +14°C° 0.3 mm 1 mps 742 mmHg 64%
18:00 +13°C° 0.3 mm 1 mps 742 mmHg 71%
19:00 +11°C° 0.3 mm 1 mps 742 mmHg 77%
20:00 +10°C° 0.2 mm 1 mps 742 mmHg 81%
21:00 +10°C° 0.2 mm 1 mps 742 mmHg 84%
22:00 +9°C° 0.2 mm 1 mps 742 mmHg 87%
23:00 +8°C° 0 mm 1 mps 742 mmHg 88%

Pasado mañana, 21 Abril, Miércoles

Tiempo Temperatura Precipitaciones Viento Presión Humedad
00:00 +8°C° 0 mm 1 mps 742 mmHg 89%
01:00 +8°C° 0 mm 1 mps 742 mmHg 89%
02:00 +7°C° 0 mm 1 mps 742 mmHg 90%
03:00 +7°C° 0 mm 1 mps 742 mmHg 91%
04:00 +7°C° 0 mm 1 mps 742 mmHg 91%
05:00 +8°C° 0 mm 1 mps 742 mmHg 89%
06:00 +9°C° 0 mm 1 mps 742 mmHg 86%
07:00 +9°C° 0 mm 1 mps 742 mmHg 83%
08:00 +10°C° 0.1 mm 2 mps 742 mmHg 77%
09:00 +13°C° 0.1 mm 2 mps 742 mmHg 70%
10:00 +14°C° 0.1 mm 2 mps 742 mmHg 64%
11:00 +15°C° 0.2 mm 2 mps 742 mmHg 59%
12:00 +16°C° 0.2 mm 2 mps 742 mmHg 54%
13:00 +16°C° 0.2 mm 3 mps 741 mmHg 50%
14:00 +16°C° 0.1 mm 3 mps 741 mmHg 51%
15:00 +16°C° 0.1 mm 3 mps 741 mmHg 53%
16:00 +16°C° 0.1 mm 3 mps 741 mmHg 54%
17:00 +14°C° 0.1 mm 2 mps 741 mmHg 59%
18:00 +13°C° 0.1 mm 2 mps 741 mmHg 64%
19:00 +10°C° 0.1 mm 2 mps 741 mmHg 68%
20:00 +9°C° 0 mm 2 mps 741 mmHg 69%
21:00 +8°C° 0 mm 2 mps 741 mmHg 71%
22:00 +9°C° 0 mm 1 mps 742 mmHg 72%
23:00 +7°C° 0 mm 2 mps 742 mmHg 78%

22 Abril, Jueves

Tiempo Temperatura Precipitaciones Viento Presión Humedad
00:00 +6°C° 0 mm 2 mps 742 mmHg 83%
01:00 +5°C° 0 mm 3 mps 743 mmHg 89%
02:00 +4°C° 0.1 mm 3 mps 743 mmHg 86%
03:00 +4°C° 0.1 mm 3 mps 743 mmHg 83%
04:00 +4°C° 0.1 mm 4 mps 743 mmHg 80%
05:00 +4°C° 0.2 mm 4 mps 743 mmHg 76%
06:00 +3°C° 0.2 mm 4 mps 744 mmHg 72%
07:00 +3°C° 0.2 mm 4 mps 744 mmHg 67%
08:00 +4°C° 0 mm 4 mps 744 mmHg 62%
09:00 +5°C° 0 mm 4 mps 744 mmHg 57%
10:00 +6°C° 0 mm 4 mps 744 mmHg 51%
11:00 +7°C° 0 mm 4 mps 744 mmHg 48%
12:00 +8°C° 0 mm 5 mps 744 mmHg 45%
13:00 +9°C° 0 mm 5 mps 744 mmHg 41%
14:00 +9°C° 0 mm 5 mps 744 mmHg 41%
15:00 +9°C° 0 mm 6 mps 743 mmHg 42%
16:00 +9°C° 0 mm 6 mps 743 mmHg 42%
17:00 +8°C° 0 mm 5 mps 744 mmHg 48%
18:00 +6°C° 0 mm 4 mps 744 mmHg 55%
19:00 +5°C° 0 mm 3 mps 744 mmHg 62%
20:00 +4°C° 0 mm 3 mps 745 mmHg 65%
21:00 +3°C° 0 mm 3 mps 745 mmHg 69%
22:00 +2°C° 0 mm 3 mps 745 mmHg 73%
23:00 +2°C° 0 mm 3 mps 746 mmHg 75%

23 Abril, Viernes

Tiempo Temperatura Precipitaciones Viento Presión Humedad
00:00 +1°C° 0 mm 3 mps 746 mmHg 77%
01:00 +1°C° 0 mm 3 mps 746 mmHg 79%
02:00 +1°C° 0 mm 3 mps 746 mmHg 81%
03:00 +1°C° 0 mm 3 mps 747 mmHg 83%
04:00 0°C° 0 mm 3 mps 747 mmHg 84%
05:00 +1°C° 0 mm 3 mps 747 mmHg 81%
06:00 +1°C° 0 mm 4 mps 748 mmHg 78%
07:00 +3°C° 0 mm 4 mps 748 mmHg 74%
08:00 +4°C° 0 mm 4 mps 748 mmHg 68%
09:00 +5°C° 0 mm 5 mps 749 mmHg 63%
10:00 +6°C° 0 mm 5 mps 749 mmHg 57%
11:00 +6°C° 0 mm 5 mps 749 mmHg 58%
12:00 +7°C° 0 mm 5 mps 749 mmHg 58%
13:00 +7°C° 0 mm 5 mps 749 mmHg 58%
14:00 +7°C° 0.1 mm 5 mps 749 mmHg 58%
15:00 +7°C° 0.1 mm 5 mps 750 mmHg 58%
16:00 +7°C° 0.1 mm 5 mps 750 mmHg 58%
17:00 +7°C° 0 mm 3 mps 750 mmHg 61%
18:00 +6°C° 0 mm 2 mps 750 mmHg 65%
19:00 +6°C° 0 mm 1 mps 750 mmHg 68%
20:00 +5°C° 0 mm 1 mps 750 mmHg 69%
21:00 +4°C° 0 mm 1 mps 750 mmHg 70%
22:00 +4°C° 0 mm 1 mps 750 mmHg 71%
23:00 +3°C° 0 mm 1 mps 750 mmHg 73%

24 Abril, Sábado

Tiempo Temperatura Precipitaciones Viento Presión Humedad
00:00 +3°C° 0 mm 1 mps 750 mmHg 74%
01:00 +2°C° 0 mm 2 mps 750 mmHg 76%
02:00 +1°C° 0 mm 2 mps 750 mmHg 77%
03:00 +1°C° 0 mm 2 mps 750 mmHg 78%
04:00 +1°C° 0 mm 2 mps 749 mmHg 79%
05:00 +2°C° 0 mm 2 mps 749 mmHg 74%
06:00 +3°C° 0 mm 2 mps 749 mmHg 69%
07:00 +5°C° 0 mm 2 mps 749 mmHg 65%
08:00 +7°C° 0 mm 3 mps 749 mmHg 61%
09:00 +8°C° 0 mm 3 mps 749 mmHg 57%
10:00 +10°C° 0 mm 4 mps 749 mmHg 54%
11:00 +11°C° 0 mm 4 mps 748 mmHg 52%
12:00 +11°C° 0 mm 4 mps 748 mmHg 49%
13:00 +12°C° 0 mm 4 mps 748 mmHg 47%
14:00 +12°C° 0 mm 5 mps 748 mmHg 50%
15:00 +10°C° 0 mm 5 mps 748 mmHg 53%
16:00 +10°C° 0 mm 6 mps 748 mmHg 57%
17:00 +8°C° 0 mm 5 mps 748 mmHg 61%
18:00 +7°C° 0 mm 4 mps 749 mmHg 66%
19:00 +5°C° 0 mm 3 mps 749 mmHg 70%
20:00 +5°C° 0 mm 2 mps 749 mmHg 73%
21:00 +5°C° 0 mm 2 mps 750 mmHg 76%
22:00 +5°C° 0 mm 1 mps 750 mmHg 79%
23:00 +5°C° 0 mm 1 mps 750 mmHg 81%
Mostrar más

Necesitamos Su Consentimiento

Meteoprog y nuestros Proveedores de Servicios pueden almacenar y acceder a sus datos personales como cookies, identificadores de dispositivo u otras tecnologías similares de su dispositivo y procesar dichos datos para personalizar contenido y anuncios, además de ofrecer funciones de redes sociales y analizar el tráfico.

  • Almacenar y/o acceder a información en su dispositivo

    Se puede almacenar o acceder a cookies, identificadores de dispositivo u otra información de su dispositivo para los fines anteriormente indicados.

  • Anuncios y contenido personalizados, medición de anuncios y contenido, percepciones del público, y desarrollo de productos

    Los anuncios y el contenido pueden personalizarse en base a su perfil. Se pueden añadir más datos para personalizar mejor los anuncios y contenidos. Se puede medir el rendimiento de los anuncios y contenidos. Se puede obtener la percepción sobre el público que ha visto los anuncios y contenidos. Dichos datos pueden usarse para desarrollar o mejorar la experiencia del usuario, sistemas y software.

Al hacer clic en ‘Estoy De Acuerdo’ usted permitirá el uso de las cookies, identificadores de dispositivo, balizas web u otras tecnologías similares indicadas. Su configuración puede cambiarse desde el navegador de su dispositivo.

Para ciertos fines, los intereses legítimos pueden ser considerados por encima del consentimiento. Puede leer más sobre ello en nuestra Política de Privacidad y Cookies.